Location: Lecco
(45.8566°N, 9.3977°E)
Time: 07:59:42
(UTC+02:00)

Envisat - Visible Passes

Search period start: 22 April 2019 00:00
Search period end: 02 May 2019 00:00
Orbit: 764 x 766 km, 98.2° (Epoch: 21 April)

Date Brightness Start Highest point End Pass type
(mag) Time Alt. Az. Time Alt. Az. Time Alt. Az.
22 Apr 6.1 21:32:30 10° WSW 21:34:12 12° W 21:35:55 10° WNW visible
23 Apr 5.4 20:52:52 10° SSW 20:57:00 25° W 21:01:10 10° NW visible
25 Apr 5.8 21:20:01 10° WSW 21:22:49 15° W 21:25:38 10° NW visible
28 Apr 5.7 21:07:58 10° SW 21:11:28 18° W 21:14:59 10° NW visible
30 Apr 6.2 21:36:28 10° W 21:37:21 10° W 21:38:13 10° WNW visible
01 May 5.5 20:56:09 10° SW 21:00:07 23° W 21:04:07 10° NW visible
